ISS DEB (SPX-26 IPA FSE) (55448 NORAD) Tracking and Keplerian Element Data

This shows tracking and keplerian element data for the satellite.

Feedback or suggestion? Click here.




ElementValue
Catalog55448
NameISS DEB (SPX-26 IPA FSE)
Epoch Orbit3228
Epoch Day238.61980242
Epoch Year2023
RAAN325.7113
Inclination51.6354
Eccentricity0.000767
Argument of Perigee1.9762
Mean Anonmoly358.1263
Mean Motion15.67958838
Decay Rate0.00054786
L11 55448U 98067VB 23238.61980242 .00054786 00000+0 48648-3 0 9998
L22 55448 51.6354 325.7113 0007670 1.9762 358.1263 15.67958838 32282



Live tracking and technical data element details for ISS DEB (SPX-26 IPA FSE) (NORAD 55448). ISS DEB (SPX-26 IPA FSE) can be tracked NOW for your location showing map with azimuth and elevation plus other details from your city location.







IsCatalogInMostPopularTable: catalog: 55448, numindb: 128
Update: records affected: 1



GetName: 55448 ISS DEB (SPX-26 IPA FSE)

Hit Count: updated at: Fri, 06 Dec 2024 11:37:06 GMT